• In Deutschland
  • Länderverzeichnis
  • Für 7 Tage
  • Wassertemperatur
  • Satellitenkarten
  • Wetterkarte
  • Widgets
  • user-avatar
    Anmelden

    Stündliche Wetter New Braunfels

    Heute, 26 September, Dienstag

    Zeit Temperatur Niederschläge Wind Luftdruck Luftfeuchtigkeit
    00:00 +26°C° 0,5 mm 3 m/S 737 mmHg 86%
    01:00 +26°C° 0,5 mm 3 m/S 737 mmHg 87%
    02:00 +26°C° 0,5 mm 3 m/S 737 mmHg 87%
    03:00 +25°C° 0,8 mm 3 m/S 737 mmHg 88%
    04:00 +25°C° 0,8 mm 2 m/S 737 mmHg 89%
    05:00 +25°C° 0,8 mm 2 m/S 737 mmHg 90%
    06:00 +26°C° 0,8 mm 2 m/S 738 mmHg 89%
    07:00 +26°C° 0,8 mm 2 m/S 738 mmHg 88%
    08:00 +26°C° 0,8 mm 2 m/S 739 mmHg 87%
    09:00 +26°C° 0,8 mm 2 m/S 739 mmHg 86%
    10:00 +26°C° 0,8 mm 2 m/S 739 mmHg 84%
    11:00 +27°C° 0,8 mm 2 m/S 739 mmHg 83%
    12:00 +27°C° 0,3 mm 2 m/S 738 mmHg 83%
    13:00 +27°C° 0,3 mm 2 m/S 738 mmHg 83%
    14:00 +27°C° 0,3 mm 2 m/S 737 mmHg 83%
    15:00 +26°C° 0 mm 3 m/S 737 mmHg 83%
    16:00 +26°C° 0 mm 3 m/S 737 mmHg 84%
    17:00 +26°C° 0 mm 3 m/S 737 mmHg 84%
    18:00 +26°C° 0,1 mm 3 m/S 738 mmHg 85%
    19:00 +26°C° 0,1 mm 3 m/S 738 mmHg 86%
    20:00 +26°C° 0,1 mm 3 m/S 738 mmHg 87%
    21:00 +26°C° 0,8 mm 3 m/S 738 mmHg 87%
    22:00 +26°C° 0,8 mm 3 m/S 739 mmHg 87%
    23:00 +25°C° 0,8 mm 3 m/S 739 mmHg 88%

    Morgen, 27 September, Mittwoch

    Zeit Temperatur Niederschläge Wind Luftdruck Luftfeuchtigkeit
    00:00 +25°C° 0,5 mm 2 m/S 739 mmHg 89%
    01:00 +25°C° 0,5 mm 2 m/S 738 mmHg 89%
    02:00 +25°C° 0,5 mm 2 m/S 738 mmHg 90%
    03:00 +25°C° 0,2 mm 2 m/S 738 mmHg 91%
    04:00 +25°C° 0,2 mm 2 m/S 739 mmHg 91%
    05:00 +25°C° 0,2 mm 2 m/S 739 mmHg 92%
    06:00 +25°C° 0,1 mm 2 m/S 739 mmHg 90%
    07:00 +26°C° 0,1 mm 2 m/S 740 mmHg 88%
    08:00 +26°C° 0,1 mm 2 m/S 740 mmHg 86%
    09:00 +27°C° 0,2 mm 2 m/S 740 mmHg 82%
    10:00 +28°C° 0,2 mm 2 m/S 740 mmHg 77%
    11:00 +28°C° 0,2 mm 2 m/S 740 mmHg 73%
    12:00 +29°C° 0,1 mm 3 m/S 740 mmHg 70%
    13:00 +30°C° 0,1 mm 3 m/S 739 mmHg 67%
    14:00 +30°C° 0,1 mm 4 m/S 739 mmHg 64%
    15:00 +29°C° 0 mm 4 m/S 739 mmHg 67%
    16:00 +29°C° 0 mm 4 m/S 739 mmHg 71%
    17:00 +28°C° 0 mm 4 m/S 739 mmHg 75%
    18:00 +27°C° 0 mm 4 m/S 739 mmHg 77%
    19:00 +27°C° 0 mm 4 m/S 740 mmHg 78%
    20:00 +26°C° 0 mm 4 m/S 740 mmHg 80%
    21:00 +26°C° 0,3 mm 3 m/S 740 mmHg 82%
    22:00 +25°C° 0,3 mm 3 m/S 741 mmHg 84%
    23:00 +25°C° 0,3 mm 3 m/S 741 mmHg 86%

    übermorgen, 28 September, Donnerstag

    Zeit Temperatur Niederschläge Wind Luftdruck Luftfeuchtigkeit
    00:00 +25°C° 0,3 mm 3 m/S 740 mmHg 87%
    01:00 +25°C° 0,3 mm 3 m/S 740 mmHg 88%
    02:00 +25°C° 0,3 mm 3 m/S 740 mmHg 89%
    03:00 +25°C° 0 mm 3 m/S 740 mmHg 89%
    04:00 +25°C° 0 mm 3 m/S 740 mmHg 89%
    05:00 +25°C° 0 mm 3 m/S 740 mmHg 90%
    06:00 +25°C° 0 mm 3 m/S 740 mmHg 88%
    07:00 +26°C° 0 mm 3 m/S 741 mmHg 86%
    08:00 +26°C° 0 mm 3 m/S 741 mmHg 84%
    09:00 +27°C° 0,2 mm 3 m/S 741 mmHg 78%
    10:00 +29°C° 0,2 mm 3 m/S 741 mmHg 72%
    11:00 +30°C° 0,2 mm 3 m/S 741 mmHg 65%
    12:00 +30°C° 0,2 mm 3 m/S 740 mmHg 63%
    13:00 +31°C° 0,2 mm 3 m/S 740 mmHg 60%
    14:00 +31°C° 0,2 mm 3 m/S 739 mmHg 57%
    15:00 +30°C° 0,2 mm 3 m/S 739 mmHg 62%
    16:00 +30°C° 0,2 mm 3 m/S 740 mmHg 67%
    17:00 +29°C° 0,2 mm 3 m/S 740 mmHg 71%
    18:00 +28°C° 0,4 mm 3 m/S 740 mmHg 75%
    19:00 +27°C° 0,4 mm 3 m/S 741 mmHg 78%
    20:00 +26°C° 0,4 mm 3 m/S 741 mmHg 82%
    21:00 +26°C° 0,2 mm 2 m/S 741 mmHg 83%
    22:00 +26°C° 0,2 mm 2 m/S 741 mmHg 84%
    23:00 +25°C° 0,2 mm 2 m/S 741 mmHg 85%

    29 September, Freitag

    Zeit Temperatur Niederschläge Wind Luftdruck Luftfeuchtigkeit
    00:00 +25°C° 0,4 mm 2 m/S 741 mmHg 86%
    01:00 +25°C° 0,4 mm 2 m/S 741 mmHg 87%
    02:00 +25°C° 0,4 mm 2 m/S 740 mmHg 88%
    03:00 +25°C° 0,4 mm 2 m/S 741 mmHg 88%
    04:00 +25°C° 0,4 mm 3 m/S 741 mmHg 88%
    05:00 +25°C° 0,4 mm 3 m/S 741 mmHg 88%
    06:00 +25°C° 0,3 mm 3 m/S 741 mmHg 87%
    07:00 +25°C° 0,3 mm 4 m/S 742 mmHg 85%
    08:00 +26°C° 0,3 mm 4 m/S 743 mmHg 84%
    09:00 +27°C° 0,4 mm 4 m/S 742 mmHg 80%
    10:00 +27°C° 0,4 mm 4 m/S 742 mmHg 76%
    11:00 +28°C° 0,4 mm 5 m/S 742 mmHg 72%
    12:00 +29°C° 0,5 mm 5 m/S 742 mmHg 69%
    13:00 +29°C° 0,5 mm 5 m/S 741 mmHg 66%
    14:00 +29°C° 0,5 mm 6 m/S 741 mmHg 64%
    15:00 +28°C° 0,1 mm 6 m/S 741 mmHg 64%
    16:00 +27°C° 0,1 mm 6 m/S 741 mmHg 65%
    17:00 +24°C° 0,1 mm 6 m/S 741 mmHg 66%
    18:00 +25°C° 0 mm 5 m/S 742 mmHg 64%
    19:00 +23°C° 0 mm 5 m/S 742 mmHg 63%
    20:00 +22°C° 0 mm 5 m/S 742 mmHg 62%
    21:00 +22°C° 0 mm 5 m/S 742 mmHg 62%
    22:00 +22°C° 0 mm 5 m/S 742 mmHg 63%
    23:00 +21°C° 0 mm 4 m/S 742 mmHg 64%

    30 September, Samstag

    Zeit Temperatur Niederschläge Wind Luftdruck Luftfeuchtigkeit
    00:00 +21°C° 0 mm 4 m/S 742 mmHg 64%
    01:00 +21°C° 0 mm 4 m/S 742 mmHg 64%
    02:00 +21°C° 0 mm 4 m/S 742 mmHg 64%
    03:00 +21°C° 0 mm 4 m/S 742 mmHg 64%
    04:00 +20°C° 0 mm 3 m/S 742 mmHg 64%
    05:00 +20°C° 0 mm 3 m/S 742 mmHg 64%
    06:00 +21°C° 0 mm 3 m/S 743 mmHg 63%
    07:00 +22°C° 0 mm 4 m/S 743 mmHg 61%
    08:00 +23°C° 0 mm 4 m/S 743 mmHg 60%
    09:00 +26°C° 0 mm 4 m/S 743 mmHg 55%
    10:00 +27°C° 0 mm 4 m/S 743 mmHg 50%
    11:00 +29°C° 0 mm 4 m/S 743 mmHg 45%
    12:00 +29°C° 0 mm 4 m/S 742 mmHg 44%
    13:00 +30°C° 0 mm 4 m/S 741 mmHg 42%
    14:00 +30°C° 0 mm 4 m/S 741 mmHg 40%
    15:00 +29°C° 0 mm 4 m/S 741 mmHg 44%
    16:00 +28°C° 0 mm 3 m/S 741 mmHg 47%
    17:00 +27°C° 0 mm 3 m/S 741 mmHg 51%
    18:00 +26°C° 0 mm 3 m/S 741 mmHg 53%
    19:00 +25°C° 0 mm 3 m/S 741 mmHg 54%
    20:00 +24°C° 0 mm 3 m/S 741 mmHg 56%
    21:00 +22°C° 0 mm 3 m/S 741 mmHg 58%
    22:00 +23°C° 0 mm 2 m/S 741 mmHg 60%
    23:00 +23°C° 0 mm 2 m/S 741 mmHg 61%

    1 Oktober, Sonntag

    Zeit Temperatur Niederschläge Wind Luftdruck Luftfeuchtigkeit
    00:00 +21°C° 0 mm 2 m/S 740 mmHg 63%
    01:00 +21°C° 0 mm 2 m/S 740 mmHg 64%
    02:00 +21°C° 0 mm 2 m/S 740 mmHg 65%
    03:00 +21°C° 0 mm 2 m/S 740 mmHg 66%
    04:00 +20°C° 0 mm 2 m/S 740 mmHg 67%
    05:00 +20°C° 0 mm 2 m/S 740 mmHg 67%
    06:00 +23°C° 0 mm 2 m/S 740 mmHg 64%
    07:00 +24°C° 0 mm 2 m/S 741 mmHg 61%
    08:00 +26°C° 0 mm 2 m/S 741 mmHg 58%
    09:00 +27°C° 0 mm 2 m/S 741 mmHg 55%
    10:00 +29°C° 0 mm 3 m/S 740 mmHg 53%
    11:00 +30°C° 0 mm 3 m/S 740 mmHg 50%
    12:00 +31°C° 0 mm 3 m/S 739 mmHg 49%
    13:00 +31°C° 0 mm 3 m/S 739 mmHg 48%
    14:00 +33°C° 0 mm 3 m/S 738 mmHg 47%
    15:00 +31°C° 0 mm 3 m/S 738 mmHg 51%
    16:00 +30°C° 0 mm 3 m/S 738 mmHg 56%
    17:00 +29°C° 0 mm 3 m/S 738 mmHg 60%
    18:00 +28°C° 0 mm 3 m/S 738 mmHg 64%
    19:00 +28°C° 0 mm 3 m/S 739 mmHg 67%
    20:00 +27°C° 0 mm 3 m/S 739 mmHg 71%
    21:00 +26°C° 0 mm 3 m/S 739 mmHg 76%
    22:00 +26°C° 0 mm 3 m/S 739 mmHg 80%
    23:00 +26°C° 0 mm 3 m/S 739 mmHg 85%
    Mehr zeigen